Location: Newark
(58.9775°N, 38.3978°E)
Time: 09:01:39
(UTC+00:00)

Envisat - Visible Passes

Search period start: 10 December 2019 00:00
Search period end: 20 December 2019 00:00
Orbit: 764 x 766 km, 98.1° (Epoch: 10 December)

Date Brightness Start Highest point End Pass type
(mag) Time Alt. Az. Time Alt. Az. Time Alt. Az.
10 Dec 5.8 02:58:42 10° NE 03:02:10 18° E 03:05:37 10° SE visible
10 Dec 3.2 04:36:55 10° NNE 04:42:03 79° ESE 04:47:09 10° SSW visible
10 Dec 3.1 14:21:53 10° SE 14:26:51 55° ENE 14:31:49 10° NNW visible
10 Dec 4.6 16:01:31 10° SSW 16:06:08 35° W 16:10:48 10° NNW visible
11 Dec 4.2 04:00:13 10° NNE 04:05:07 45° E 04:10:00 10° S visible
11 Dec 3.6 13:45:45 10° ESE 13:50:17 34° ENE 13:54:50 10° N visible
11 Dec 3.5 15:24:06 10° S 15:29:07 61° WSW 15:34:11 10° NNW visible
11 Dec 6.0 17:06:43 10° WSW 17:09:15 14° W 17:11:47 10° NW visible
12 Dec 5.2 03:23:43 10° NNE 03:28:01 26° E 03:32:16 10° SSE visible
12 Dec 3.0 05:02:27 10° NNE 05:07:33 72° WNW 05:12:36 10° SSW visible
12 Dec 2.9 14:47:12 10° SSE 14:52:17 79° ENE 14:57:24 10° NNW visible
12 Dec 5.3 16:27:50 10° SW 16:31:55 24° W 16:36:01 10° NW visible
13 Dec 6.0 02:47:45 10° NE 02:50:43 15° E 02:53:39 10° ESE visible
13 Dec 3.4 04:25:38 10° NNE 04:30:45 67° ESE 04:35:49 10° S visible
13 Dec 3.2 14:10:45 10° SE 14:15:36 47° ENE 14:20:29 10° N visible
13 Dec 4.3 15:49:58 10° SSW 15:54:46 41° W 15:59:36 10° NNW visible
14 Dec 4.5 03:48:59 10° NNE 03:53:46 38° E 03:58:30 10° SSE visible
14 Dec 3.8 13:34:44 10° ESE 13:39:06 29° NE 13:43:28 10° N visible
14 Dec 3.2 15:12:43 10° S 15:17:48 72° WSW 15:22:55 10° NNW visible
14 Dec 5.8 16:54:38 10° WSW 16:57:47 16° W 17:00:56 10° NW visible
15 Dec 5.5 03:12:37 10° NE 03:16:36 22° E 03:20:34 10° SE visible
15 Dec 3.0 04:51:09 10° NNE 04:56:17 84° WNW 05:01:22 10° SSW visible
15 Dec 2.9 14:35:58 10° SSE 14:41:01 68° ENE 14:46:06 10° NNW visible
15 Dec 5.0 16:16:10 10° SSW 16:20:30 28° W 16:24:52 10° NNW visible
16 Dec 6.1 02:36:58 10° NE 02:39:14 13° E 02:41:30 10° ESE visible
16 Dec 3.7 04:14:22 10° NNE 04:19:25 57° E 04:24:26 10° S visible
16 Dec 3.4 13:59:39 10° SE 14:04:23 41° ENE 14:09:09 10° N visible
16 Dec 4.0 15:38:30 10° S 15:43:25 48° W 15:48:22 10° NNW visible
16 Dec 6.2 17:22:42 10° W 17:23:45 11° WNW 17:24:48 10° WNW visible
17 Dec 4.8 03:37:47 10° NNE 03:42:23 33° E 03:46:57 10° SSE visible
17 Dec 3.1 05:16:43 10° NNE 05:21:44 58° WNW 05:26:42 10° SW visible
17 Dec 3.9 13:23:46 10° ESE 13:27:55 26° NE 13:32:05 10° N visible
17 Dec 3.0 15:01:24 10° SSE 15:06:30 84° WSW 15:11:38 10° NNW visible
17 Dec 5.6 16:42:44 10° SW 16:46:20 19° W 16:49:56 10° NW visible
18 Dec 5.7 03:01:32 10° NE 03:05:09 19° E 03:08:46 10° SE visible
18 Dec 3.1 04:39:51 10° NNE 04:44:59 84° ESE 04:50:05 10° SSW visible
18 Dec 3.0 14:24:47 10° SE 14:29:46 58° ENE 14:34:46 10° NNW visible
18 Dec 4.7 16:04:33 10° SSW 16:09:06 33° W 16:13:42 10° NNW visible
19 Dec 6.3 02:26:38 10° ENE 02:27:45 11° ENE 02:28:51 10° E visible
19 Dec 4.1 04:03:07 10° NNE 04:08:04 48° E 04:13:00 10° S visible
19 Dec 3.5 13:48:35 10° ESE 13:53:11 35° ENE 13:57:47 10° N visible
19 Dec 3.6 15:27:04 10° S 15:32:04 57° W 15:37:07 10° NNW visible
19 Dec 6.1 17:10:01 10° WSW 17:12:15 13° W 17:14:30 10° NW visible
